Date String (YYYY-MM-DD hh:mm:ss) UTC,Instrument flags,Ambient pressure (hPa),Sample flow (lpm),Bypass flow (lpm),Sample temperature (°C),Ambient temperature (°C),ASC tube jacket temperature (°C),LED temperature (°C),Box temperature (°C),Sample RH (%),Span deviation,Mass concentration (μg/m³),Mass concentration (μg/m³),Mass concentration (μg/m³)
DateTimeUTC,F1_M11,P_M11,Q1_M11,Q2_M11,T1_M11,T2_M11,T3_M11,T4_M11,T5_M11,U1_M11,ZSPAN_M11,X2_M11,X0_M11,X1_M11
2023-01-07 05:00:00,,0827.8,5.00,0.00,22.6,21.2,00.0,31.6,24.4,12.1,0000.0,0004.68,0007.33,0004.44
2023-01-07 05:01:00,,0827.9,4.99,0.00,22.6,21.2,00.0,31.6,24.3,12.0,0000.0,0004.69,0007.27,0004.47
2023-01-07 05:02:00,,0827.9,5.00,0.00,22.6,21.2,00.0,31.6,24.3,12.1,0000.0,0004.72,0007.30,0004.52
2023-01-07 05:03:00,,0827.9,5.00,0.00,22.6,21.2,00.0,31.6,24.3,12.1,0000.0,0004.75,0007.35,0004.56
2023-01-07 05:04:00,,0827.9,5.00,0.00,22.6,21.2,00.0,31.6,24.3,12.0,0000.0,0004.75,0007.33,0004.57
2023-01-07 05:05:00,,0827.9,5.01,0.00,22.6,21.2,00.0,31.6,24.4,12.0,0000.0,0004.78,0007.38,0004.60
2023-01-07 05:06:00,,0827.9,5.00,0.00,22.6,21.2,00.0,31.6,24.4,12.0,0000.0,0004.84,0007.45,0004.65
2023-01-07 05:07:00,,0827.9,4.99,0.00,22.6,21.2,00.0,31.5,24.3,12.0,0000.0,0004.88,0007.50,0004.67
2023-01-07 05:08:00,,0827.9,5.00,0.00,22.6,21.2,00.0,31.5,24.3,12.0,0000.0,0004.92,0008.48,0004.71
2023-01-07 05:09:00,,0827.9,5.00,0.00,22.6,21.2,00.0,31.5,24.3,12.0,0000.0,0004.97,0008.86,0004.76
2023-01-07 05:10:00,,0827.9,4.99,0.00,22.6,21.2,00.0,31.5,24.3,12.0,0000.0,0005.01,0009.12,0004.79
2023-01-07 05:11:00,,0827.9,5.00,0.00,22.6,21.2,00.0,31.5,24.3,12.1,0000.0,0005.03,0009.04,0004.81
2023-01-07 05:12:00,,0827.9,5.00,0.00,22.6,21.2,00.0,31.5,24.3,12.1,0000.0,0005.06,0009.06,0004.84
2023-01-07 05:13:00,,0828.0,5.00,0.00,22.6,21.1,00.0,31.5,24.2,12.1,0000.0,0005.09,0009.11,0004.86
2023-01-07 05:14:00,,0827.8,4.99,0.00,22.6,21.1,00.0,31.5,24.3,12.1,0000.0,0005.11,0009.35,0004.87
2023-01-07 05:15:00,,0827.9,5.00,0.00,22.6,21.1,00.0,31.5,24.3,12.1,0000.0,0005.16,0009.52,0004.91
2023-01-07 05:16:00,,0828.0,5.01,0.00,22.6,21.1,00.0,31.5,24.3,12.1,0000.0,0005.20,0009.87,0004.95
2023-01-07 05:17:00,,0828.0,5.01,0.00,22.6,21.1,00.0,31.5,24.3,12.1,0000.0,0005.22,0010.00,0004.99
2023-01-07 05:18:00,,0828.0,5.00,0.00,22.6,21.1,00.0,31.5,24.3,12.1,0000.0,0005.23,0010.10,0005.01
2023-01-07 05:19:00,,0828.0,5.00,0.00,22.5,21.1,00.0,31.5,24.2,12.2,0000.0,0005.23,0009.27,0005.01
2023-01-07 05:20:00,,0828.0,5.00,0.00,22.5,21.1,00.0,31.5,24.2,12.2,0000.0,0005.22,0008.91,0005.01
2023-01-07 05:21:00,,0828.0,5.00,0.00,22.5,21.1,00.0,31.5,24.2,12.2,0000.0,0005.22,0008.54,0005.02
2023-01-07 05:22:00,,0828.0,4.99,0.00,22.5,21.1,00.0,31.4,24.2,12.3,0000.0,0005.25,0008.57,0005.04
2023-01-07 05:23:00,,0827.9,5.01,0.00,22.5,21.1,00.0,31.4,24.3,12.3,0000.0,0005.29,0008.64,0005.07
2023-01-07 05:24:00,,0828.0,4.99,0.00,22.5,21.1,00.0,31.4,24.2,12.3,0000.0,0005.28,0008.64,0005.07
2023-01-07 05:25:00,,0828.0,5.00,0.00,22.5,21.1,00.0,31.4,24.2,12.3,0000.0,0005.27,0008.42,0005.06
2023-01-07 05:26:00,,0828.0,4.99,0.00,22.5,21.1,00.0,31.4,24.3,12.4,0000.0,0005.23,0008.36,0005.03
2023-01-07 05:27:00,,0828.1,5.00,0.00,22.5,21.1,00.0,31.4,24.3,12.4,0000.0,0005.17,0008.01,0004.97
2023-01-07 05:28:00,,0828.1,5.00,0.00,22.5,21.1,00.0,31.4,24.2,12.5,0000.0,0005.10,0007.78,0004.89
2023-01-07 05:29:00,,0828.1,4.99,0.00,22.5,21.1,00.0,31.4,24.2,12.5,0000.0,0005.07,0007.72,0004.84
2023-01-07 05:30:00,,0828.1,5.00,0.00,22.5,21.1,00.0,31.4,24.2,12.4,0000.0,0005.06,0007.95,0004.82
2023-01-07 05:31:00,,0828.1,5.00,0.00,22.5,21.1,00.0,31.4,24.2,12.5,0000.0,0005.03,0008.19,0004.80
2023-01-07 05:32:00,,0828.1,5.00,0.00,22.5,21.1,00.0,31.4,24.2,12.5,0000.0,0004.99,0008.12,0004.78
2023-01-07 05:33:00,,0828.1,5.01,0.00,22.5,21.1,00.0,31.4,24.2,12.5,0000.0,0004.98,0008.20,0004.75
2023-01-07 05:34:00,,0828.1,5.00,0.00,22.5,21.1,00.0,31.4,24.2,12.5,0000.0,0004.96,0008.18,0004.73
2023-01-07 05:35:00,,0828.1,5.00,0.00,22.5,21.1,00.0,31.4,24.2,12.5,0000.0,0004.99,0008.20,0004.74
2023-01-07 05:36:00,,0828.1,5.00,0.00,22.5,21.1,00.0,31.4,24.2,12.5,0000.0,0005.00,0008.24,0004.75
2023-01-07 05:37:00,,0828.1,5.00,0.00,22.5,21.1,00.0,31.4,24.2,12.5,0000.0,0005.01,0008.10,0004.78
2023-01-07 05:38:00,,0828.1,5.00,0.00,22.5,21.1,00.0,31.4,24.2,12.5,0000.0,0005.08,0008.33,0004.83
2023-01-07 05:39:00,,0828.1,5.00,0.00,22.5,21.1,00.0,31.4,24.2,12.5,0000.0,0005.15,0008.47,0004.89
2023-01-07 05:40:00,,0828.1,5.00,0.00,22.5,21.0,00.0,31.4,24.2,12.5,0000.0,0005.18,0008.44,0004.94
2023-01-07 05:41:00,,0828.2,5.00,0.00,22.4,21.0,00.0,31.3,24.1,12.5,0000.0,0005.19,0008.38,0004.96
2023-01-07 05:42:00,,0828.2,4.99,0.00,22.4,21.0,00.0,31.3,24.2,12.5,0000.0,0005.21,0007.99,0004.97
2023-01-07 05:43:00,,0828.2,5.00,0.00,22.4,21.0,00.0,31.3,24.2,12.5,0000.0,0005.23,0008.02,0004.97
2023-01-07 05:44:00,,0828.1,5.00,0.00,22.4,21.0,00.0,31.3,24.2,12.6,0000.0,0005.22,0007.98,0004.96
2023-01-07 05:45:00,,0828.2,5.00,0.00,22.4,21.0,00.0,31.3,24.2,12.6,0000.0,0005.20,0007.94,0004.96
2023-01-07 05:46:00,,0828.2,5.00,0.00,22.4,21.0,00.0,31.3,24.2,12.6,0000.0,0005.18,0007.89,0004.97
2023-01-07 05:47:00,,0828.2,5.00,0.00,22.4,20.9,00.0,31.3,24.1,12.6,0000.0,0005.20,0007.92,0004.99
2023-01-07 05:48:00,,0828.1,5.01,0.00,22.3,20.7,00.0,31.3,24.1,12.7,0000.0,0005.22,0008.00,0005.00
2023-01-07 05:49:00,,0828.2,5.00,0.00,22.3,20.7,00.0,31.3,24.0,12.7,0000.0,0005.21,0007.93,0005.00
2023-01-07 05:50:00,,0828.3,5.02,0.00,22.3,20.7,00.0,31.3,24.0,12.7,0000.0,0005.20,0007.83,0004.98
2023-01-07 05:51:00,,0828.2,5.02,0.00,22.3,20.7,00.0,31.3,23.9,12.7,0000.0,0005.18,0007.83,0004.96
2023-01-07 05:52:00,,0828.2,4.98,0.00,22.3,20.7,00.0,31.2,23.9,12.7,0000.0,0005.14,0007.72,0004.94
2023-01-07 05:53:00,,0828.2,5.00,0.00,22.2,20.8,00.0,31.2,23.9,12.7,0000.0,0005.12,0007.71,0004.92
2023-01-07 05:54:00,,0828.2,5.00,0.00,22.2,20.8,00.0,31.2,23.9,12.7,0000.0,0005.12,0007.73,0004.92
2023-01-07 05:55:00,,0828.2,5.00,0.00,22.2,20.8,00.0,31.2,23.9,12.6,0000.0,0005.11,0007.69,0004.92
2023-01-07 05:56:00,,0828.2,5.00,0.00,22.2,20.8,00.0,31.2,23.9,12.6,0000.0,0005.13,0007.70,0004.93
2023-01-07 05:57:00,,0828.3,5.01,0.00,22.2,20.8,00.0,31.2,24.0,12.6,0000.0,0005.13,0007.73,0004.92
2023-01-07 05:58:00,,0828.2,5.00,0.00,22.2,20.8,00.0,31.2,23.9,12.7,0000.0,0005.13,0007.75,0004.91
2023-01-07 05:59:00,,0828.2,5.00,0.00,22.2,20.8,00.0,31.2,24.0,12.7,0000.0,0005.13,0007.69,0004.91
